sat.trackr.live / text

‹ back to catalog

ONEWEB-0183

NORAD 48219 · 2021-031K

PAYLOAD ACTIVE UNKNOWN

§ Identity

Operator
Country
UK
Launch date
2021-04-25
Launch site
VOSTO
Launch vehicle
Mass (kg)
RCS (m²)

Purposes: comms

External: N2YO · Heavens-Above · Gunter

§ Orbital elements

Epoch: 2026-09-19T19:20:22.247520Z

Period
109.55 min
Inclination
87.8899°
Eccentricity
0.0001983
Mean motion
13.14501297 rev/d
Perigee alt
1,204.3 km
Apogee alt
1,207.3 km
Semi-major
7,583.9 km
B*
-8.2348e-5
RAAN
270.8321°
Arg perigee
96.1573°
Mean anomaly
263.9783°
Rev number
26,075

§ Raw data

ONEWEB-01831 48219U 21031K   26262.80581305 -.00000018  00000+0 -82348-4 0  99982 48219  87.8899 270.8321 0001983  96.1573 263.9783 13.14501297260751

JSON: /api/v1/satellites/48219 · /tle

For live sub-satellite position, see the globe view (requires WebGL).

§ Visibility from observer

Set your observer location to see the next 7 days of passes ≥ 10°. The values pass through the URL so the page stays shareable.

No JS? Fill the form by hand. The geolocation button needs JavaScript.